This is the latest recevied weather packets stored in our database for station/object N5KJT. If no packets are shown the sender has not sent any weather packets the latest 10 day(s).
| Time | Temp. | Humidity | Pressure | Rain* | Wind** | Luminosity | Snow |
|---|---|---|---|---|---|---|---|
| 1788099315 | 17.78° C | 71% | 1026.3 hPa | 0 mm | - | 360 W/m² | - |
| 1788099015 | 17.78° C | 72% | 1026.2 hPa | 0 mm | - | 302 W/m² | - |
| 1788098715 | 17.22° C | 73% | 1026.2 hPa | 0 mm | - | 215 W/m² | - |
| 1788098415 | 17.22° C | 74% | 1026.1 hPa | 0 mm | - | 208 W/m² | - |
| 1788098115 | 16.67° C | 75% | 1025.7 hPa | 0 mm | - | 251 W/m² | - |
| 1788097815 | 16.11° C | 77% | 1025.4 hPa | 0 mm | - | 238 W/m² | - |
| 1788097515 | 15.56° C | 79% | 1025.4 hPa | 0 mm | - | 220 W/m² | - |
| 1788097215 | 15.56° C | 80% | 1025.9 hPa | 0 mm | - | 186 W/m² | - |
| 1788096915 | 15° C | 80% | 1026.1 hPa | 0 mm | - | 149 W/m² | - |
| 1788096615 | 15° C | 81% | 1026.1 hPa | 0 mm | - | 117 W/m² | - |
| 1788096315 | 14.44° C | 81% | 1026 hPa | 0 mm | - | 99 W/m² | - |
| 1788096015 | 14.44° C | 82% | 1026 hPa | 0 mm | - | 87 W/m² | - |
| 1788095715 | 14.44° C | 82% | 1026 hPa | 0 mm | - | 65 W/m² | - |
| 1788095415 | 14.44° C | 83% | 1025.6 hPa | 0 mm | - | 56 W/m² | - |
| 1788095115 | 13.89° C | 83% | 1025.4 hPa | 0 mm | - | 49 W/m² | - |
| 1788094815 | 13.89° C | 83% | 1025.4 hPa | 0 mm | - | 35 W/m² | - |
| 1788094515 | 13.89° C | 83% | 1025.5 hPa | 0 mm | - | 24 W/m² | - |
| 1788094215 | 13.33° C | 83% | 1025.8 hPa | 0 mm | - | 19 W/m² | - |
| 1788093915 | 13.33° C | 82% | 1025.8 hPa | 0 mm | - | 13 W/m² | - |
| 1788093615 | 13.33° C | 82% | 1025.8 hPa | 0 mm | - | 8 W/m² | - |
| 1788093315 | 13.33° C | 81% | 1025.9 hPa | 0 mm | - | 2 W/m² | - |
| 1788093015 | 13.89° C | 81% | 1025.9 hPa | 0 mm | - | 0 W/m² | - |
| 1788092715 | 13.89° C | 81% | 1025.8 hPa | 0 mm | - | 0 W/m² | - |
| 1788092415 | 13.89° C | 81% | 1025.7 hPa | 0 mm | - | 0 W/m² | - |
| 1788092115 | 13.89° C | 80% | 1025.7 hPa | 0 mm | - | 0 W/m² | - |
* Rain latest hour (hover to see other rain measurements)
** Current wind speed in m/s (hover to see current wind gust speed)